TimeEST,TemperatureF,Dew PointF,Humidity,Sea Level PressureIn,VisibilityMPH,Wind Direction,Wind SpeedMPH,Gust SpeedMPH,PrecipitationIn,Events,Conditions,WindDirDegrees,DateUTC
12:53 AM,32.0,21.0,64,29.78,10.0,WNW,15.0,24.2,N/A,,Mostly Cloudy,300,2012-12-28 05:53:00
1:53 AM,30.9,19.9,64,29.81,10.0,WNW,15.0,25.3,N/A,,Clear,300,2012-12-28 06:53:00
2:53 AM,30.9,19.9,64,29.85,10.0,NW,13.8,21.9,N/A,,Clear,310,2012-12-28 07:53:00
3:53 AM,30.9,18.0,59,29.88,10.0,NW,13.8,33.4,N/A,,Scattered Clouds,320,2012-12-28 08:53:00
4:53 AM,30.9,18.0,59,29.91,10.0,NNW,18.4,25.3,N/A,,Overcast,330,2012-12-28 09:53:00
5:53 AM,30.9,19.0,61,29.95,10.0,NW,13.8,-,N/A,,Mostly Cloudy,320,2012-12-28 10:53:00
6:53 AM,30.0,18.0,61,29.97,10.0,NW,15.0,-,N/A,,Scattered Clouds,320,2012-12-28 11:53:00
7:53 AM,32.0,19.9,61,29.97,10.0,NW,18.4,25.3,N/A,,Scattered Clouds,320,2012-12-28 12:53:00
10:53 AM,36.0,21.9,57,30.01,10.0,NW,20.7,29.9,N/A,,Clear,310,2012-12-28 15:53:00
11:53 AM,37.0,21.9,54,29.99,10.0,NW,18.4,24.2,N/A,,Clear,320,2012-12-28 16:53:00
12:53 PM,39.0,21.9,50,29.99,10.0,NW,15.0,24.2,N/A,,Clear,310,2012-12-28 17:53:00
1:53 PM,39.9,21.9,49,29.99,10.0,WNW,12.7,21.9,N/A,,Clear,290,2012-12-28 18:53:00
2:53 PM,39.0,23.0,53,30.00,10.0,WNW,15.0,-,N/A,,Clear,300,2012-12-28 19:53:00
3:53 PM,37.9,23.0,55,30.02,10.0,NW,10.4,-,N/A,,Clear,310,2012-12-28 20:53:00
4:53 PM,34.0,21.9,61,30.03,10.0,WNW,6.9,-,N/A,,Clear,290,2012-12-28 21:53:00
5:53 PM,32.0,21.0,64,30.07,10.0,Calm,Calm,-,N/A,,Clear,0,2012-12-28 22:53:00
6:53 PM,32.0,21.9,66,30.06,10.0,Calm,Calm,-,N/A,,Clear,0,2012-12-28 23:53:00
7:53 PM,28.9,21.0,72,30.05,10.0,Calm,Calm,-,N/A,,Clear,0,2012-12-29 00:53:00
8:53 PM,26.1,19.9,78,30.06,10.0,Calm,Calm,-,N/A,,Clear,0,2012-12-29 01:53:00
9:53 PM,24.1,19.0,81,30.08,10.0,NW,3.5,-,N/A,,Clear,320,2012-12-29 02:53:00
10:53 PM,23.0,18.0,81,30.09,10.0,NNW,3.5,-,N/A,,Clear,330,2012-12-29 03:53:00
11:53 PM,19.9,17.1,89,30.06,10.0,Calm,Calm,-,N/A,,Clear,0,2012-12-29 04:53:00